Regional Weather Roundup
Issued by NWS

Home | Current Version | Previous Version | Graphics & Text | Print | Product List | Glossary On
Versions: 1 2 3 4 5 6 7 8 9 10 11 12 13 14 15 16 17 18 19 20 21 22 23 24 25 26 27 28 29 30 31 32 33 34 35 36 37 38 39 40 41 42 43 44 45 46 47 48 49 50
000
ASUS43 KBIS 282202
RWRND

NORTH DAKOTA REGIONAL WEATHER ROUNDUP
NATIONAL WEATHER SERVICE BISMARCK ND
500 PM CDT FRI AUG 28 2015

NOTE: "FAIR" INDICATES FEW OR NO CLOUDS BELOW 12,000 FEET WITH NO
SIGNIFICANT WEATHER AND/OR OBSTRUCTIONS TO VISIBILITY.


NDZ001>003-009>011-017-282300-
NORTHWEST NORTH DAKOTA

CITY           SKY/WX    TMP DP  RH WIND       PRES   REMARKS
WILLISTON      MOSUNNY   89  47  23 W9        29.88S HAZE
MINOT          SUNNY     87  58  37 NW5       29.85S
MINOT AFB      SUNNY     86  57  36 N2        29.84S
$$

NDZ018>021-031>035-040>046-282300-
SOUTHWEST NORTH DAKOTA

CITY           SKY/WX    TMP DP  RH WIND       PRES   REMARKS
BISMARCK       SUNNY     89  64  43 SW10      29.87S HX  90
DICKINSON      MOSUNNY   89  48  24 NW3       29.91S
GARRISON         N/A     84  29  13 S7        29.87F
HETTINGER ARPT MOSUNNY   88  51  28 W12       29.96S
$$

NDZ004>008-012>016-024-026-027-054-282300-
NORTHEAST NORTH DAKOTA

CITY           SKY/WX    TMP DP  RH WIND       PRES   REMARKS
GRAND FORKS    MOSUNNY   83  68  60 S14G24    29.81S
GRND FRKS AFB  SUNNY     85  68  56 SW16      29.81F
DEVILS LAKE    SUNNY     84  64  51 SW9       29.83S
$$

NDZ022-023-025-028>030-036>039-047>053-282300-
SOUTHEAST NORTH DAKOTA

CITY           SKY/WX    TMP DP  RH WIND       PRES   REMARKS
FARGO          SUNNY     83  67  58 S18       29.87F
JAMESTOWN      SUNNY     83  67  58 S13       29.87S
$$



USA.gov is the U.S. government's official web portal to all federal, state and local government web resources and services.